Location: Bilsen
(53.7722°N, 9.8765°E)
Time: 17:56:15
(UTC+00:00)

Cosmos 1151 Rocket - Pass Details

Date: 18 February 2020
Orbit: 592 x 616 km, 82.5° (Epoch: 28 March)

Event Time Altitude Azimuth Distance (km) Brightness Sun altitude
Rises 05:41:26 0° 181° (S) 2,843 6.6 -8.5°
Reaches altitude 10° 05:43:38 10° 179° (S) 1,948 5.8 -8.2°
Maximum altitude 05:47:55 66° 97° (E) 666 3.5 -7.5°
Drops below altitude 10° 05:52:15 10° 16° (NNE) 1,979 5.7 -6.9°
Sets 05:54:30 0° 14° (NNE) 2,892 6.5 -6.6°
